Hourly Data Report for October 02, 2015

All times are specified in Local Standard Time (LST). Add 1 hour to adjust for Daylight Saving Time where and when it is observed.

CHARLOTTETOWN A
PRINCE EDWARD ISLAND

46°17'21.000" N
63°07'09.000" W
48.50 m
8300301
71706
YYG

Download Data

Hourly Data (October 2015)
Hourly Data Report for October 2, 2015
Temp Definition
°C
Dew Point Temp Definition
°C
Rel Hum Definition
%
Wind Dir Definition
10's deg

Wind Spd Definition
km/h
Visibility Definition
km
Stn Press Definition
kPa
Hmdx Definition


Wind Chill Definition


Weather Definition


TIME
00:00 Legend Double Dagger 9.2 7.5 89 2 27 9.7 101.79     Rain Showers,Fog
01:00 Legend Double Dagger 9.1 7.2 88 2 21 16.1 101.80     LegendNANA
02:00 Legend Double Dagger 8.9 7.5 91 1 20 8.1 101.82     Rain Showers,Fog
03:00 Legend Double Dagger 8.7 8.0 95 2 21 8.1 101.79     Rain Showers,Fog
04:00 Legend Double Dagger 9.0 7.5 90 2 18 16.1 101.84     Rain Showers
05:00 Legend Double Dagger 8.8 7.4 91 3 25 12.9 101.87     Rain Showers
06:00 Legend Double Dagger 8.8 7.3 90 2 20 9.7 101.84     Rain Showers,Fog
07:00 Legend Double Dagger 8.7 7.3 91 2 20 9.7 101.87     Rain Showers,Fog
08:00 Legend Double Dagger 8.7 8.0 95 1 23 4.8 101.91     Rain Showers
09:00 Legend Double Dagger 8.9 8.0 94 36 18 8.1 102.00     Rain Showers,Fog
10:00 Legend Double Dagger 9.8 8.3 90 4 19 9.7 101.94     Rain Showers,Fog
11:00 Legend Double Dagger 9.4 8.0 91 2 28 9.7 101.99     Rain Showers
12:00 Legend Double Dagger 9.8 8.4 91 1 20 19.3 101.96     Rain Showers
13:00 Legend Double Dagger 9.8 8.6 92 1 21 12.9 101.99     Rain Showers
14:00 Legend Double Dagger 9.8 8.6 92 36 24 12.9 101.98     Rain Showers
15:00 Legend Double Dagger 10.2 8.8 91 1 29 8.1 101.98     Rain Showers,Fog
16:00 Legend Double Dagger 9.8 8.7 93 2 32 3.2 102.02     Rain Showers,Fog
17:00 Legend Double Dagger 9.6 8.5 93 1 29 3.2 102.07     Rain Showers,Fog
18:00 Legend Double Dagger 9.6 8.1 90 2 29 8.1 102.06     Rain Showers,Fog
19:00 Legend Double Dagger 9.5 8.3 92 2 27 9.7 102.13     Rain Showers
20:00 Legend Double Dagger 9.2 8.6 96 1 24 16.1 102.12     Rain Showers
21:00 Legend Double Dagger 9.7 8.3 91 1 26 12.9 102.15     Rain Showers
22:00 Legend Double Dagger 9.4 8.3 93 1 20 16.1 102.17     Rain Showers
23:00 Legend Double Dagger 9.5 8.4 93 1 17 24.1 102.16     Cloudy

Notes on Data Quality.

Legend

  • E = Estimated
  • M = Missing
  • NA = Not Available
  • ‡ = Partner data that is not subject to review by the National Climate Archives
Date modified: